BBX56A EHJB-EHKD

Flight info

Callsign BBX56A
Flight time N/A
Altitude 3000
Route LARDI DCT AMGOD DCT LASEX DCT BERGI DCT NIXCO
Aircraft A139/L-SDG/S

Departure

Time 2026-04-29 12:11
Airport K1-A Heliport (EHJB)

Arrival

Time N/A
Airport De Kooy Airfield / Den Helder Naval Air Station (EHKD)
Time Latitude Longitude Altitude Speed Heading
2026-04-29 12:08 53.84306 3.07806 126 ft 0 kts 90°
2026-04-29 12:11 53.84307 3.07797 168 ft 11 kts 94°
2026-04-29 12:11 53.84254 3.07852 572 ft 37 kts 90°
2026-04-29 12:11 53.84114 3.08310 1211 ft 53 kts 125°
2026-04-29 12:11 53.83853 3.08750 1880 ft 67 kts 129°
2026-04-29 12:12 53.83530 3.09217 2424 ft 61 kts 111°
2026-04-29 12:12 53.83230 3.09729 2707 ft 62 kts 104°
2026-04-29 12:12 53.82935 3.10275 2972 ft 63 kts 114°
2026-04-29 12:12 53.82668 3.10801 3035 ft 58 kts 120°
2026-04-29 12:13 53.82384 3.11299 2993 ft 58 kts 116°
2026-04-29 12:13 53.82116 3.11811 2977 ft 59 kts 117°
2026-04-29 12:13 53.81841 3.12326 2973 ft 59 kts 117°
2026-04-29 12:13 53.81562 3.12850 2969 ft 60 kts 118°
2026-04-29 12:14 53.81274 3.13389 2978 ft 62 kts 118°
2026-04-29 12:14 53.80927 3.14049 2839 ft 104 kts 120°
2026-04-29 12:14 53.80374 3.15078 2994 ft 124 kts 122°
2026-04-29 12:14 53.79790 3.16158 3065 ft 125 kts 123°
2026-04-29 12:15 53.79197 3.17248 3047 ft 124 kts 124°
2026-04-29 12:15 53.78614 3.18319 2997 ft 124 kts 124°
2026-04-29 12:15 53.78033 3.19387 2983 ft 124 kts 125°
2026-04-29 12:15 53.77448 3.20465 2968 ft 125 kts 124°
2026-04-29 12:16 53.76866 3.21538 2977 ft 124 kts 125°
2026-04-29 12:16 53.76277 3.22617 2985 ft 123 kts 124°
2026-04-29 12:16 53.75701 3.23678 2984 ft 123 kts 125°
2026-04-29 12:16 53.75122 3.24745 2986 ft 123 kts 125°
2026-04-29 12:17 53.74524 3.25811 3199 ft 128 kts 124°
2026-04-29 12:17 53.73967 3.26805 3318 ft 123 kts 128°